This is the latest recevied weather packets stored in our database for station/object YREN. If no packets are shown the sender has not sent any weather packets the latest 10 day(s).
| Time | Temp. | Humidity | Pressure | Rain* | Wind** | Luminosity | Snow |
|---|---|---|---|---|---|---|---|
| 1788354304 | 12.22° C | 70% | 1015.9 hPa | 0 mm | - | - | - |
| 1788353404 | 12.22° C | 70% | 1015.9 hPa | 0 mm | - | - | - |
| 1788352504 | 12.22° C | 70% | 1015.9 hPa | 0 mm | - | - | - |
| 1788351603 | 12.78° C | 70% | 1015.8 hPa | 0.25 mm | - | - | - |
| 1788350704 | 12.78° C | 70% | 1015.8 hPa | 0.25 mm | - | - | - |
| 1788348903 | 13.89° C | 67% | 1015.8 hPa | 0.25 mm | - | - | - |
| 1788348004 | 14.44° C | 63% | 1015.1 hPa | 0 mm | - | - | - |
| 1788347104 | 14.44° C | 63% | 1015.1 hPa | 0 mm | - | - | - |
| 1788346204 | 14.44° C | 65% | 1014.8 hPa | 0 mm | - | - | - |
| 1788345304 | 14.44° C | 65% | 1014.8 hPa | 0 mm | - | - | - |
| 1788344403 | 14.44° C | 65% | 1014.5 hPa | 0 mm | - | - | - |
| 1788343504 | 14.44° C | 65% | 1014.5 hPa | 0 mm | - | - | - |
| 1788341705 | 15.56° C | 66% | 1014.3 hPa | 0 mm | - | - | - |
| 1788340804 | 16.11° C | 68% | 1014 hPa | 0 mm | - | - | - |
| 1788339903 | 16.11° C | 68% | 1014 hPa | 0 mm | - | - | - |
| 1788339004 | 16.67° C | 71% | 1013.7 hPa | 0 mm | - | - | - |
| 1788338104 | 16.67° C | 71% | 1013.7 hPa | 0 mm | - | - | - |
| 1788337204 | 16.67° C | 71% | 1013.4 hPa | 0 mm | - | - | - |
| 1788336303 | 16.67° C | 71% | 1013.4 hPa | 0 mm | - | - | - |
| 1788335404 | 17.22° C | 67% | 1013.1 hPa | 0 mm | - | - | - |
| 1788334503 | 17.22° C | 67% | 1013.1 hPa | 0 mm | - | - | - |
| 1788333604 | 18.33° C | 66% | 1013.3 hPa | 0 mm | - | - | - |
| 1788332703 | 18.33° C | 66% | 1013.3 hPa | 0 mm | - | - | - |
| 1788331803 | 17.22° C | 67% | 1013.3 hPa | 0 mm | - | - | - |
| 1788330904 | 17.22° C | 67% | 1013.3 hPa | 0 mm | - | - | - |
* Rain latest hour (hover to see other rain measurements)
** Current wind speed in m/s (hover to see current wind gust speed)